SCP
0 0 0 -0 0 0 0 0 0 0 0 0 0 0 0 0 0 0 0 0 0 0 0 0 0 0 0 0 0 0 0 0 -0 -0 -0 0 0 0 0 0 0 0 0
-0 -0 0 -0 0 0 0 0 0 0 0 0 0 0 0 0 0 0 0 0 0 0 0 0 0 0 0 0 0 0 0 0 -0 -0 -0 0 0 0 0 0 0 0 0
-0 -0 0 0 0 0 0 0 0 0 0 0 0 0 0 0 0 0 0 0 0 0 0 0 0 0 0 0 0 0 0 0 0 -0 0 -0 0 0 0 0 0 0 0
-0 -0 -0 -0 0 0 0 0 0 0 0 0 0 0 0 0 0 0 0 0 0 0 0 0 0 0 0 0 0 0 0 0 0 0 0 0 0 0 0 0 0 0 0
0 -0 -0 -0 0 0 0 0 0 0 0 0 0 0 0 0 0 0 0 0 0 0 0 0 0 0 0 0 0 0 0 0 0 0 0 0 0 0 0 0 0 0 0
0 0 0 0 0 0 0 0 0 0 0 0 0 0 0 0 0 0 0 0 0 0 0 0 0 0 0 0 0 0 0 0 0 0 0 0 0 0 0 0 0 0 0
0 0 0 0 0 0 0 0 0 0 0 0 0 0 0 0 0 0 0 0 0 0 0 0 0 0 0 0 0 0 0 0 0 0 0 1 0 0 0 0 0 0 0
0 -0 -0 0 0 0 0 0 0 0 0 0 0 0 0 0 0 0 0 0 0 0 0 0 0 0 0 0 0 0 0 0 0 0 0 0 1 0 0 0 0 0 0
-0 -0 0 0 0 0 0 0 0 0 1 0 0 0 0 0 0 0 0 0 0 0 0 0 0 0 0 0 0 0 0 0 0 0 0 0 0 1 0 0 0 0 0
0 0 0 0 0 0 0 0 0 0 0 0 0 0 0 0 0 0 0 0 0 0 0 0 0 0 0 0 0 0 0 0 0 0 0 0 0 1 0 0 0 0 0
0 0 0 0 0 0 0 0 0 0 0 0 0 0 0 0 0 0 0 0 0 0 0 0 0 0 1 0 1 0 0 0 0 0 0 0 0 0 0 0 0 0 0
0 0 0 0 0 0 0 0 0 0 0 0 0 0 0 0 0 0 0 0 0 0 0 0 0 0 0 1 1 0 1 1 0 0 0 0 0 0 0 0 0 0 0
0 0 0 0 0 0 0 0 0 0 0 0 0 0 0 0 0 0 0 -0 0 0 0 0 0 0 0 0 1 1 1 0 1 1 0 0 0 0 0 0 0 0 0
-0 -0 0 0 0 0 0 0 0 0 0 0 0 0 0 0 0 -0 0 0 0 0 0 0 0 0 0 0 0 0 0 1 1 1 0 0 0 0 0 0 0 0 0
0 0 0 0 0 0 0 0 0 0 0 0 0 0 0 0 0 0 0 0 0 0 0 0 0 0 0 0 0 0 0 0 0 0 0 0 0 0 0 0 0 0 0
0 -0 -0 -0 0 0 0 0 0 0 0 0 0 0 0 0 0 0 0 0 0 0 0 0 0 0 0 0 0 0 0 0 0 0 0 0 0 0 0 0 0 0 0
-0 -0 -0 -0 0 0 0 0 0 0 0 0 0 0 0 0 0 0 0 0 0 0 0 0 0 0 0 0 0 0 0 0 0 0 0 0 1 1 0 0 0 0 0
0 0 -0 -0 0 0 0 0 0 0 0 0 0 0 0 0 0 0 0 0 0 0 0 0 0 0 0 0 0 0 0 0 0 0 -0 -0 0 0 0 0 0 0 0
0 0 0 0 0 0 0 0 0 0 0 0 0 0 0 0 0 0 0 0 0 0 0 0 0 0 0 0 0 0 0 0 0 0 -0 -0 -0 -0 0 0 0 0 0
0 0 0 0 0 0 0 0 0 0 0 0 0 0 0 0 0 0 0 0 0 0 0 0 0 0 0 0 0 0 0 0 0 0 0 0 -0 -0 -0 0 0 0 -0
0 0 0 0 0 0 0 0 0 0 0 0 0 0 0 0 0 0 0 0 0 0 0 0 0 0 0 0 0 0 0 0 0 0 0 0 0 0 0 0 0 0 0
0 0 0 0 0 0 0 0 0 0 0 0 0 0 0 0 0 0 0 0 0 0 0 0 0 0 0 0 0 0 0 0 0 0 0 0 0 0 0 0 0 0 0
0 0 0 0 0 0 0 0 0 0 0 0 0 0 0 0 0 0 0 0 0 0 0 0 0 0 0 0 0 0 0 0 0 0 0 0 0 0 0 0 0 0 0
0 0 0 0 0 0 0 0 0 0 0 0 0 0 0 0 0 0 0 0 0 0 0 0 0 0 0 0 0 0 0 0 0 0 0 0 0 0 0 0 0 0 0
0 0 0 0 0 0 0 0 0 0 0 0 0 0 0 0 0 0 0 0 0 0 0 0 0 0 0 0 0 0 0 0 0 0 0 0 0 0 0 0 0 0 0
0 0 0 0 0 0 0 0 0 0 0 0 0 0 0 0 0 0 0 0 0 0 0 0 0 0 0 0 0 0 0 0 0 0 0 0 0 0 0 0 0 0 0
Wind_Speed_500mb
9 10 10 11 11 10 10 9 11 12 13 13 13 12 10 8 6 5 4 2 2 2 3 4 6 9 12 14 14 13 7 5 6 3 2 1 1 3 2 1 4 1 5
10 11 11 11 11 10 9 9 11 13 14 15 15 15 14 13 11 9 8 7 7 6 5 4 3 5 7 10 12 12 8 3 5 9 8 6 3 3 4 4 1 6 7
12 12 12 12 12 10 9 10 12 14 16 19 20 21 22 20 18 17 16 16 15 15 13 11 11 10 9 9 11 12 11 8 7 10 15 11 8 5 3 6 9 6 6
13 11 10 10 11 11 11 12 14 18 19 20 20 24 25 23 21 20 22 23 23 23 21 20 17 16 15 14 15 16 15 13 14 15 14 16 13 11 10 9 10 11 7
9 9 10 10 9 9 9 12 14 17 19 20 23 24 24 23 23 24 25 25 26 27 28 28 26 22 20 19 18 19 19 16 13 15 17 18 17 12 12 13 12 11 11
7 8 10 11 12 12 13 14 15 15 17 21 26 26 26 24 24 24 25 27 30 31 32 32 32 30 28 25 23 23 23 19 13 10 17 18 20 17 17 15 16 14 14
9 14 17 20 17 13 16 17 16 14 17 19 22 26 30 30 28 27 28 25 28 31 34 35 37 36 35 35 33 29 29 28 21 15 19 25 24 20 19 16 18 14 17
15 21 26 26 20 15 15 16 16 15 17 20 24 28 31 30 31 30 29 28 28 28 33 36 36 38 37 41 41 41 36 36 30 27 27 27 29 25 20 13 15 16 19
19 21 25 27 24 16 13 14 16 17 19 23 27 32 36 36 39 38 38 34 31 30 33 35 38 42 42 44 48 48 45 42 43 37 28 31 34 29 21 13 7 9 16
18 20 23 25 25 23 22 23 25 25 24 28 31 31 32 37 39 39 33 28 27 28 29 30 33 39 41 42 44 48 53 50 54 50 38 31 35 31 25 17 10 4 4
22 27 27 25 25 26 27 27 27 27 28 31 28 26 27 24 28 37 34 31 31 30 30 35 38 40 38 39 43 41 43 49 60 58 50 41 37 36 32 25 17 12 9
32 36 36 36 36 33 31 29 30 29 28 25 21 19 24 28 30 29 33 37 40 42 42 43 45 48 49 41 39 42 46 44 52 65 68 50 43 39 37 29 23 18 13
38 39 42 40 37 32 27 25 26 25 24 23 21 24 29 33 38 43 48 50 48 46 42 41 40 41 39 41 35 36 42 46 53 52 69 57 55 31 40 34 28 25 20
43 44 44 41 34 27 22 19 16 14 16 20 27 32 37 43 47 46 46 45 44 42 36 33 33 36 34 34 36 34 31 34 38 42 53 57 59 54 43 40 35 28 24
42 46 49 40 31 23 14 13 12 15 18 23 32 34 38 38 41 45 45 45 43 41 40 36 31 32 35 34 33 33 38 36 37 40 42 57 59 61 54 42 42 32 27
42 50 52 45 37 26 19 18 18 20 25 31 33 35 34 37 43 42 44 46 45 46 45 42 40 37 37 37 36 33 30 33 39 37 41 43 56 67 65 55 44 41 30
42 48 54 48 35 24 20 18 21 23 26 29 29 31 37 41 42 41 45 47 48 48 45 46 43 39 35 35 37 37 34 29 28 33 43 36 50 65 72 50 51 48 40
34 43 51 50 35 26 23 22 22 23 25 24 29 33 37 40 42 44 46 48 50 49 48 46 46 43 38 35 35 32 32 30 25 25 27 42 43 63 72 67 51 47 43
34 41 50 49 34 26 25 25 24 24 22 27 31 33 36 40 43 46 49 50 50 49 46 44 38 38 38 36 36 29 24 25 23 21 14 15 25 44 34 58 66 48 54
30 36 44 44 30 22 22 24 24 24 25 27 30 33 37 42 46 49 49 47 44 43 40 44 41 31 30 34 32 25 16 10 11 11 8 10 10 4 15 23 38 34 47
27 31 36 38 31 21 20 22 25 27 26 26 29 35 40 44 47 48 45 43 42 42 43 43 43 35 28 33 26 21 13 8 15 13 17 10 6 11 12 15 13 20 14
21 23 28 35 32 26 25 26 28 28 27 28 32 36 41 44 47 45 44 42 42 42 42 43 45 41 31 32 25 18 15 5 11 11 10 11 14 12 13 16 20 22 22
16 17 23 28 29 25 23 27 27 27 26 26 30 35 42 45 46 42 40 39 41 43 42 43 42 42 39 27 25 18 13 10 21 8 10 9 7 6 6 15 16 15 15
12 15 20 25 25 26 18 21 27 28 29 32 33 35 40 44 42 41 38 38 40 42 42 42 40 40 36 33 25 18 10 16 10 9 8 14 12 5 2 8 10 12 12
12 15 18 23 23 25 14 18 23 25 28 30 30 31 37 40 39 39 38 39 39 43 43 43 40 36 32 28 28 30 21 12 8 10 15 16 13 11 10 10 12 15 17
12 15 14 19 17 23 14 16 19 22 23 27 28 29 37 38 37 37 39 38 40 42 44 43 39 33 28 26 27 24 21 18 16 10 16 14 12 7 8 10 12 14 16
Wind_Direction_500mb
112 114 104 89 79 68 57 46 37 29 23 16 9 4 1 360 356 352 352 6 57 99 89 48 32 24 18 15 13 10 354 300 286 263 301 332 14 84 67 275 204 258 230
108 96 86 79 71 63 54 39 30 26 20 13 5 355 342 329 318 303 286 276 271 264 255 258 291 330 352 1 359 4 356 307 261 276 276 262 258 285 310 329 309 251 237
100 99 88 78 71 57 38 27 26 22 18 14 9 2 346 330 316 305 294 281 269 264 261 267 276 282 291 308 324 334 334 302 258 254 272 240 245 261 284 303 297 282 240
102 98 86 65 52 40 23 12 12 15 15 12 8 355 341 330 323 314 303 293 284 275 269 266 269 276 282 288 293 299 311 306 264 259 253 234 235 248 290 291 271 270 267
75 56 36 20 18 10 9 3 1 6 9 7 356 350 347 337 326 315 297 282 274 274 274 269 267 269 269 268 274 278 283 289 276 254 232 221 214 255 289 293 273 254 253
57 35 11 356 341 341 344 353 352 349 348 352 348 349 344 339 333 327 312 296 285 278 271 268 264 259 260 256 257 265 270 273 270 255 224 221 213 244 265 282 280 249 239
33 2 350 348 331 323 334 339 339 335 335 338 336 343 342 339 337 332 324 309 295 286 280 277 272 270 266 262 258 253 257 262 258 254 235 227 236 243 263 271 273 253 234
12 6 357 349 342 322 328 319 325 321 320 318 332 336 336 337 336 334 329 320 311 301 294 289 288 283 271 267 262 257 250 254 256 254 240 237 239 239 248 263 270 250 240
28 12 9 360 359 344 336 331 330 316 308 322 322 323 329 328 329 325 325 317 311 305 303 299 290 287 279 270 265 262 251 264 259 254 254 235 233 235 231 233 245 254 253
28 16 10 9 6 5 354 342 330 324 317 317 319 324 333 330 328 329 328 326 324 322 318 314 309 300 285 273 263 265 262 252 261 259 247 236 226 224 227 208 195 203 270
26 18 16 7 358 352 343 338 335 331 323 320 321 325 334 345 345 339 332 330 329 326 321 315 315 317 315 287 272 263 260 249 251 252 250 236 232 223 223 206 198 193 203
16 7 360 354 349 346 340 338 337 333 329 323 327 347 359 352 346 338 328 324 321 315 312 308 306 307 307 301 285 273 265 258 250 247 248 238 235 226 224 208 197 191 193
16 4 0 353 345 338 339 341 337 341 349 346 353 356 351 345 340 335 333 330 327 323 320 315 311 312 309 305 296 277 271 259 257 254 246 236 225 231 227 213 202 195 191
16 14 8 4 358 354 350 348 360 353 359 352 352 346 346 344 342 346 351 353 355 353 347 336 328 323 321 318 319 302 273 267 261 262 251 240 227 222 226 218 209 205 201
21 17 13 9 4 7 6 21 25 21 12 9 352 348 348 356 2 3 7 8 7 4 359 352 336 328 328 326 319 313 288 287 279 264 254 244 239 223 211 217 213 210 210
24 20 17 15 21 20 13 14 16 12 2 350 350 355 6 9 8 11 10 9 7 5 3 357 349 332 317 317 317 317 316 304 289 277 264 251 237 230 214 216 209 210 217
25 18 20 21 16 18 17 15 9 359 349 346 360 8 6 5 6 8 5 2 359 357 356 355 353 349 335 320 307 302 303 306 305 283 274 244 235 218 208 212 212 213 214
24 19 20 21 16 17 14 10 2 356 355 5 10 6 3 5 10 5 358 352 351 350 348 346 343 347 348 345 335 318 299 296 305 306 298 279 287 209 208 216 221 213 225
21 18 16 15 11 14 15 15 16 17 17 14 7 6 11 11 5 358 352 347 346 347 349 349 345 341 345 348 347 336 314 297 304 300 289 276 275 276 238 223 239 251 258
6 10 15 15 9 10 15 14 16 14 13 13 16 17 14 6 358 353 352 352 355 355 354 357 358 352 345 346 351 347 349 351 344 356 297 260 258 239 230 245 231 251 246
359 3 11 15 21 28 29 29 26 21 22 21 18 16 9 3 358 358 2 4 9 5 3 0 5 2 358 352 351 352 358 23 32 28 42 54 180 187 190 222 194 191 185
339 358 8 13 21 27 32 27 21 18 23 22 16 11 7 4 2 3 6 9 9 8 6 4 4 5 5 1 356 345 346 342 354 6 35 54 67 100 153 162 173 185 191
325 348 1 12 20 22 28 26 26 28 25 15 12 9 7 4 3 4 5 7 6 2 360 360 358 357 356 360 12 5 336 336 340 11 19 44 85 108 138 153 175 192 212
308 340 349 7 13 14 24 28 30 28 19 10 6 5 3 1 2 3 3 4 2 1 0 359 355 355 353 353 2 1 328 310 323 317 30 12 23 15 227 208 230 238 240
298 326 342 360 4 4 18 24 22 21 15 11 5 2 2 2 3 6 7 7 3 2 358 352 351 353 354 357 2 1 360 347 328 317 320 334 337 329 302 272 257 264 271
280 312 332 351 355 4 11 11 13 10 7 6 3 5 6 9 10 10 10 10 4 1 359 358 357 356 358 9 13 15 17 16 351 327 315 313 308 319 302 279 265 261 265
Wind_Speed_850mb
9 10 10 11 11 10 10 9 11 12 13 13 13 12 10 8 6 5 4 2 2 2 3 4 6 9 12 14 14 13 7 5 6 3 2 1 1 3 2 1 4 1 5
10 11 11 11 11 10 9 9 11 13 14 15 15 15 14 13 11 9 8 7 7 6 5 4 3 5 7 10 12 12 8 3 5 9 8 6 3 3 4 4 1 6 7
12 12 12 12 12 10 9 10 12 14 16 19 20 21 22 20 18 17 16 16 15 15 13 11 11 10 9 9 11 12 11 8 7 10 15 11 8 5 3 6 9 6 6
13 11 10 10 11 11 11 12 14 18 19 20 20 24 25 23 21 20 22 23 23 23 21 20 17 16 15 14 15 16 15 13 14 15 14 16 13 11 10 9 10 11 7
9 9 10 10 9 9 9 12 14 17 19 20 23 24 24 23 23 24 25 25 26 27 28 28 26 22 20 19 18 19 19 16 13 15 17 18 17 12 12 13 12 11 11
7 8 10 11 12 12 13 14 15 15 17 21 26 26 26 24 24 24 25 27 30 31 32 32 32 30 28 25 23 23 23 19 13 10 17 18 20 17 17 15 16 14 14
9 14 17 20 17 13 16 17 16 14 17 19 22 26 30 30 28 27 28 25 28 31 34 35 37 36 35 35 33 29 29 28 21 15 19 25 24 20 19 16 18 14 17
15 21 26 26 20 15 15 16 16 15 17 20 24 28 31 30 31 30 29 28 28 28 33 36 36 38 37 41 41 41 36 36 30 27 27 27 29 25 20 13 15 16 19
19 21 25 27 24 16 13 14 16 17 19 23 27 32 36 36 39 38 38 34 31 30 33 35 38 42 42 44 48 48 45 42 43 37 28 31 34 29 21 13 7 9 16
18 20 23 25 25 23 22 23 25 25 24 28 31 31 32 37 39 39 33 28 27 28 29 30 33 39 41 42 44 48 53 50 54 50 38 31 35 31 25 17 10 4 4
22 27 27 25 25 26 27 27 27 27 28 31 28 26 27 24 28 37 34 31 31 30 30 35 38 40 38 39 43 41 43 49 60 58 50 41 37 36 32 25 17 12 9
32 36 36 36 36 33 31 29 30 29 28 25 21 19 24 28 30 29 33 37 40 42 42 43 45 48 49 41 39 42 46 44 52 65 68 50 43 39 37 29 23 18 13
38 39 42 40 37 32 27 25 26 25 24 23 21 24 29 33 38 43 48 50 48 46 42 41 40 41 39 41 35 36 42 46 53 52 69 57 55 31 40 34 28 25 20
43 44 44 41 34 27 22 19 16 14 16 20 27 32 37 43 47 46 46 45 44 42 36 33 33 36 34 34 36 34 31 34 38 42 53 57 59 54 43 40 35 28 24
42 46 49 40 31 23 14 13 12 15 18 23 32 34 38 38 41 45 45 45 43 41 40 36 31 32 35 34 33 33 38 36 37 40 42 57 59 61 54 42 42 32 27
42 50 52 45 37 26 19 18 18 20 25 31 33 35 34 37 43 42 44 46 45 46 45 42 40 37 37 37 36 33 30 33 39 37 41 43 56 67 65 55 44 41 30
42 48 54 48 35 24 20 18 21 23 26 29 29 31 37 41 42 41 45 47 48 48 45 46 43 39 35 35 37 37 34 29 28 33 43 36 50 65 72 50 51 48 40
34 43 51 50 35 26 23 22 22 23 25 24 29 33 37 40 42 44 46 48 50 49 48 46 46 43 38 35 35 32 32 30 25 25 27 42 43 63 72 67 51 47 43
34 41 50 49 34 26 25 25 24 24 22 27 31 33 36 40 43 46 49 50 50 49 46 44 38 38 38 36 36 29 24 25 23 21 14 15 25 44 34 58 66 48 54
30 36 44 44 30 22 22 24 24 24 25 27 30 33 37 42 46 49 49 47 44 43 40 44 41 31 30 34 32 25 16 10 11 11 8 10 10 4 15 23 38 34 47
27 31 36 38 31 21 20 22 25 27 26 26 29 35 40 44 47 48 45 43 42 42 43 43 43 35 28 33 26 21 13 8 15 13 17 10 6 11 12 15 13 20 14
21 23 28 35 32 26 25 26 28 28 27 28 32 36 41 44 47 45 44 42 42 42 42 43 45 41 31 32 25 18 15 5 11 11 10 11 14 12 13 16 20 22 22
16 17 23 28 29 25 23 27 27 27 26 26 30 35 42 45 46 42 40 39 41 43 42 43 42 42 39 27 25 18 13 10 21 8 10 9 7 6 6 15 16 15 15
12 15 20 25 25 26 18 21 27 28 29 32 33 35 40 44 42 41 38 38 40 42 42 42 40 40 36 33 25 18 10 16 10 9 8 14 12 5 2 8 10 12 12
12 15 18 23 23 25 14 18 23 25 28 30 30 31 37 40 39 39 38 39 39 43 43 43 40 36 32 28 28 30 21 12 8 10 15 16 13 11 10 10 12 15 17
12 15 14 19 17 23 14 16 19 22 23 27 28 29 37 38 37 37 39 38 40 42 44 43 39 33 28 26 27 24 21 18 16 10 16 14 12 7 8 10 12 14 16
Wind_Direction_850mb
112 114 104 89 79 68 57 46 37 29 23 16 9 4 1 360 356 352 352 6 57 99 89 48 32 24 18 15 13 10 354 300 286 263 301 332 14 84 67 275 204 258 230
108 96 86 79 71 63 54 39 30 26 20 13 5 355 342 329 318 303 286 276 271 264 255 258 291 330 352 1 359 4 356 307 261 276 276 262 258 285 310 329 309 251 237
100 99 88 78 71 57 38 27 26 22 18 14 9 2 346 330 316 305 294 281 269 264 261 267 276 282 291 308 324 334 334 302 258 254 272 240 245 261 284 303 297 282 240
102 98 86 65 52 40 23 12 12 15 15 12 8 355 341 330 323 314 303 293 284 275 269 266 269 276 282 288 293 299 311 306 264 259 253 234 235 248 290 291 271 270 267
75 56 36 20 18 10 9 3 1 6 9 7 356 350 347 337 326 315 297 282 274 274 274 269 267 269 269 268 274 278 283 289 276 254 232 221 214 255 289 293 273 254 253
57 35 11 356 341 341 344 353 352 349 348 352 348 349 344 339 333 327 312 296 285 278 271 268 264 259 260 256 257 265 270 273 270 255 224 221 213 244 265 282 280 249 239
33 2 350 348 331 323 334 339 339 335 335 338 336 343 342 339 337 332 324 309 295 286 280 277 272 270 266 262 258 253 257 262 258 254 235 227 236 243 263 271 273 253 234
12 6 357 349 342 322 328 319 325 321 320 318 332 336 336 337 336 334 329 320 311 301 294 289 288 283 271 267 262 257 250 254 256 254 240 237 239 239 248 263 270 250 240
28 12 9 360 359 344 336 331 330 316 308 322 322 323 329 328 329 325 325 317 311 305 303 299 290 287 279 270 265 262 251 264 259 254 254 235 233 235 231 233 245 254 253
28 16 10 9 6 5 354 342 330 324 317 317 319 324 333 330 328 329 328 326 324 322 318 314 309 300 285 273 263 265 262 252 261 259 247 236 226 224 227 208 195 203 270
26 18 16 7 358 352 343 338 335 331 323 320 321 325 334 345 345 339 332 330 329 326 321 315 315 317 315 287 272 263 260 249 251 252 250 236 232 223 223 206 198 193 203
16 7 360 354 349 346 340 338 337 333 329 323 327 347 359 352 346 338 328 324 321 315 312 308 306 307 307 301 285 273 265 258 250 247 248 238 235 226 224 208 197 191 193
16 4 0 353 345 338 339 341 337 341 349 346 353 356 351 345 340 335 333 330 327 323 320 315 311 312 309 305 296 277 271 259 257 254 246 236 225 231 227 213 202 195 191
16 14 8 4 358 354 350 348 360 353 359 352 352 346 346 344 342 346 351 353 355 353 347 336 328 323 321 318 319 302 273 267 261 262 251 240 227 222 226 218 209 205 201
21 17 13 9 4 7 6 21 25 21 12 9 352 348 348 356 2 3 7 8 7 4 359 352 336 328 328 326 319 313 288 287 279 264 254 244 239 223 211 217 213 210 210
24 20 17 15 21 20 13 14 16 12 2 350 350 355 6 9 8 11 10 9 7 5 3 357 349 332 317 317 317 317 316 304 289 277 264 251 237 230 214 216 209 210 217
25 18 20 21 16 18 17 15 9 359 349 346 360 8 6 5 6 8 5 2 359 357 356 355 353 349 335 320 307 302 303 306 305 283 274 244 235 218 208 212 212 213 214
24 19 20 21 16 17 14 10 2 356 355 5 10 6 3 5 10 5 358 352 351 350 348 346 343 347 348 345 335 318 299 296 305 306 298 279 287 209 208 216 221 213 225
21 18 16 15 11 14 15 15 16 17 17 14 7 6 11 11 5 358 352 347 346 347 349 349 345 341 345 348 347 336 314 297 304 300 289 276 275 276 238 223 239 251 258
6 10 15 15 9 10 15 14 16 14 13 13 16 17 14 6 358 353 352 352 355 355 354 357 358 352 345 346 351 347 349 351 344 356 297 260 258 239 230 245 231 251 246
359 3 11 15 21 28 29 29 26 21 22 21 18 16 9 3 358 358 2 4 9 5 3 0 5 2 358 352 351 352 358 23 32 28 42 54 180 187 190 222 194 191 185
339 358 8 13 21 27 32 27 21 18 23 22 16 11 7 4 2 3 6 9 9 8 6 4 4 5 5 1 356 345 346 342 354 6 35 54 67 100 153 162 173 185 191
325 348 1 12 20 22 28 26 26 28 25 15 12 9 7 4 3 4 5 7 6 2 360 360 358 357 356 360 12 5 336 336 340 11 19 44 85 108 138 153 175 192 212
308 340 349 7 13 14 24 28 30 28 19 10 6 5 3 1 2 3 3 4 2 1 0 359 355 355 353 353 2 1 328 310 323 317 30 12 23 15 227 208 230 238 240
298 326 342 360 4 4 18 24 22 21 15 11 5 2 2 2 3 6 7 7 3 2 358 352 351 353 354 357 2 1 360 347 328 317 320 334 337 329 302 272 257 264 271
280 312 332 351 355 4 11 11 13 10 7 6 3 5 6 9 10 10 10 10 4 1 359 358 357 356 358 9 13 15 17 16 351 327 315 313 308 319 302 279 265 261 265